カタログに戻る

STARLINK-3590

運用中通信VLEO
NORAD 51867·PAYLOAD·🇺🇸 United States

打ち上げ Mar 3, 2022 から Cape Canaveral Space Force Station

Loading…

次のパス (今後24時間)

TLE

最新Source: CelesTrak SupGP

元期: Sep 15, 2026, 02:40 UTC

1 51867C 22022R   26258.11159722 -.00032058  00000+0 -91733-3 0  2589
2 51867  53.1589 228.6560 0001356  89.7629 297.3077 15.35409804    10

AllMySatでSTARLINK-3590をリアルタイム追跡

Download on the App Store